[[{"header":{"parameterUnit":"m.s-1","parameterCategory":2,"la1":30.2991,"la2":30.254,"lo1":-89.0895,"lo2":-89.0444,"dy":0.0017,"dx":0.0017,"nx":28,"ny":28,"refTime":"2024-07-05T21:00:00:Z","depth":"0","parameterNumber":2,"parameterNumberName":"U-component_of_CURRENTS"},"data":[0,0,0,0,0,0,0,0,0,0,0,0,0,0,0,0,0,0,0,0,0,0,0,0,0,0,0,0,0,0,0,0,0,0,0,0,0,0,0,0,0,0,0,0,0,0,0,0,0,0,0,0,0,0,0,0,0,0,0.1641,0.1643,0,0.1838,0.1841,0.1843,0.1885,0.1883,0.1882,0.1881,0.1849,0.1849,0.1849,0,0,0,0,0,0,0,0,0,0,0,0,0,0.1453,0.1455,0.1641,0.1643,0.1646,0.1838,0.1841,0.1843,0.1885,0.1883,0.1882,0.188,0.1848,0.1849,0.1849,0,0,0,0,0,0,0,0,0,0,0,0,0,0.1579,0.1456,0.164,0.1691,0.1698,0.1838,0.1841,0.1844,0.1885,0.1883,0.1881,0.1879,0.1848,0.1849,0.1849,0.1893,0,0,0.1851,0.1851,0,0,0,0,0,0,0,0,0.1572,0.1585,0.1681,0.1688,0.1695,0.1836,0.1763,0.1849,0.1886,0.1812,0.1881,0.1878,0.1825,0.1828,0.1871,0.1891,0.189,0.1851,0.1851,0.1852,0.1852,0,0,0,0,0,0,0,0.1563,0.1578,0.1717,0.1684,0.1693,0.1757,0.1771,0.1781,0.1822,0.1819,0.1823,0.1848,0.1827,0.187,0.1869,0.1889,0.1851,0.1852,0.1852,0.1852,0.184,0.1839,0,0,0,0,0,0,0.1536,0.1569,0.1711,0.1723,0.1629,0.1761,0.1777,0.1792,0.1827,0.1833,0.1849,0.1849,0.187,0.1869,0.1868,0.1877,0.1852,0.1852,0.1853,0.1841,0.184,0.1839,0,0,0,0,0,0,0.1531,0.1546,0.1703,0.1653,0.1677,0.1765,0.1783,0.1797,0.1823,0.1853,0.1854,0.1858,0.1869,0.1867,0.1868,0.1877,0.1852,0.1853,0.1842,0.1841,0.184,0.1922,0,0,0,0,0,0,0.1525,0.1543,0.1563,0.165,0.1679,0.1771,0.1785,0.1802,0.1843,0.1844,0.1861,0.1858,0.1867,0.1867,0.1868,0.1877,0.1853,0.1842,0.1841,0.184,0.192,0.1924,0.1927,0,0,0,0,0,0.1517,0.1598,0.1562,0.1581,0.1696,0.1772,0.1792,0.1848,0.1845,0.1862,0.1871,0.1856,0.1858,0.1869,0.187,0.1879,0.1843,0.1841,0.184,0.1918,0.1923,0.1927,0,0,0,0,0,0,0.1556,0.1611,0.1575,0.1669,0.1686,0.1778,0.1837,0.1841,0.1871,0.1871,0.187,0.1869,0.1871,0.1853,0.1863,0.1863,0.184,0.1838,0.1898,0.1902,0.1906,0.1974,0.1854,0,0,0,0,0,0.1557,0.1605,0.1637,0.1697,0.1711,0.1751,0.1794,0.1813,0.1851,0.1865,0.1878,0.1875,0.1874,0.1868,0.1874,0.1883,0.1981,0.1877,0.1881,0.1884,0.1936,0.2126,0.2155,0.1834,0.1834,0.1834,0,0,0.1586,0.1623,0.1649,0.1703,0.1731,0.177,0.1773,0.1837,0.1869,0.1852,0.1909,0.1897,0.1878,0.1898,0.1894,0.188,0.2018,0.1882,0.1886,0.1937,0.2128,0.2161,0.219,0.1833,0.1834,0.1834,0,0,0.1668,0.1687,0.1735,0.1757,0.1791,0.181,0.1809,0.1871,0.1895,0.1925,0.1923,0.1924,0.1922,0.1937,0.1931,0.195,0.2036,0.1917,0.1997,0.2179,0.2211,0.2239,0.2391,0.2433,0.1915,0.1915,0.1915,0,0.1692,0.1753,0.1762,0.1809,0.1855,0.1812,0.1869,0.1887,0.194,0.1996,0.1938,0.1992,0.1951,0.2008,0.2002,0.1966,0.2092,0.1989,0.2196,0.2226,0.2255,0.2403,0.2449,0.1919,0.1918,0.1918,0.1918,0,0.1787,0.1834,0.1878,0.1895,0.1937,0.199,0.1995,0.2032,0.2029,0.2063,0.212,0.208,0.2132,0.2075,0.2042,0.219,0.2222,0.2194,0.221,0.2294,0.2442,0.2488,0.1924,0.1923,0.1922,0.1921,0,0,0.1856,0.1925,0.1942,0.1955,0.1999,0.2038,0.2102,0.2174,0.2247,0.2235,0.2368,0.2298,0.2308,0.2301,0.2251,0.2353,0.2609,0.2364,0.2372,0.256,0.3047,0.297,0.3013,0.2658,0.2667,0.2673,0.3068,0,0.1915,0.2013,0.2055,0.2128,0.2166,0.2194,0.2259,0.2319,0.2362,0.2474,0.2447,0.2513,0.238,0.2406,0.25,0.2567,0.2738,0.2506,0.2899,0.2911,0.2872,0.3066,0.2941,0.3276,0.3113,0.3121,0.3126,0,0.2002,0.2047,0.2151,0.2236,0.2263,0.2303,0.244,0.2501,0.2635,0.2688,0.277,0.2777,0.2865,0.2761,0.2997,0.2873,0.3012,0.306,0.3077,0.3024,0.2922,0.3163,0.3366,0.3314,0.3197,0.3192,0.3187,0,0.2035,0.2133,0.2216,0.2246,0.2324,0.2399,0.2445,0.2577,0.267,0.285,0.2949,0.3058,0.3122,0.3284,0.331,0.3236,0.3611,0.3523,0.3608,0.3602,0.3581,0.3558,0.3823,0.3846,0.3845,0.3844,0.3843,0,0.2116,0.2185,0.2224,0.2262,0.2366,0.2423,0.2571,0.2656,0.2819,0.2947,0.3053,0.3167,0.3278,0.3446,0.3495,0.367,0.3784,0.3709,0.3738,0.3592,0.3568,0.3581,0.3483,0.3859,0.3856,0.3853,0.385,0,0.2197,0.2217,0.2302,0.2367,0.2384,0.2472,0.2607,0.2708,0.286,0.3051,0.3121,0.3338,0.3551,0.3651,0.392,0.3902,0.3983,0.4129,0.3916,0.3911,0.387,0.3777,0.3927,0.3856,0.4324,0.4325,0.4326,0,0.2261,0.2304,0.2363,0.2397,0.2435,0.2536,0.2597,0.2721,0.2826,0.3112,0.32,0.3498,0.3647,0.3981,0.4046,0.4225,0.4118,0.4246,0.4061,0.3935,0.3857,0.3645,0.3558,0.4075,0.4073,0.4072,0.4072,0,0.2375,0.2394,0.2447,0.2466,0.2514,0.2594,0.2674,0.2743,0.2903,0.3064,0.3267,0.3422,0.3756,0.3883,0.4129,0.4191,0.4034,0.423,0.4207,0.3799,0.3491,0.341,0.3714,0.4062,0.4063,0.4064,0.4064,0.4065,0.2465,0.2489,0.2491,0.2535,0.2582,0.2596,0.2618,0.2696,0.2815,0.2977,0.3201,0.3389,0.3676,0.3978,0.4028,0.4081,0.4014,0.4057,0.4001,0.3835,0.3623,0.3876,0.4155,0.4157,0.4158,0.4159,0.416,0,0.2498,0.249,0.2532,0.2526,0.2554,0.2571,0.262,0.261,0.2657,0.2852,0.3009,0.3317,0.3517,0.3728,0.3879,0.3852,0.3685,0.3846,0.356,0.3522,0.3905,0.3744,0.3814,0.3814,0.3815,0.3815,0.3815,0.3815,0.2489,0.2487,0.2459,0.2454,0.2466,0.2415,0.2408,0.2408,0.2493,0.2638,0.2801,0.2974,0.3305,0.3632,0.3678,0.3645,0.3461,0.3363,0.3379,0.3664,0.3678,0.3692,0.3527,0.355,0.3549,0.2895,0.289,0.2887]},{"header":{"parameterUnit":"m.s-1","parameterCategory":2,"la1":30.2991,"la2":30.254,"lo1":-89.0895,"lo2":-89.0444,"dy":0.0017,"dx":0.0017,"nx":28,"ny":28,"refTime":"2024-07-05T21:00:00:Z","depth":"0","parameterNumber":3,"parameterNumberName":"V-component_of_CURRENTS"},"data":[0,0,0,0,0,0,0,0,0,0,0,0,0,0,0,0,0,0,0,0,0,0,0,0,0,0,0,0,0,0,0,0,0,0,0,0,0,0,0,0,0,0,0,0,0,0,0,0,0,0,0,0,0,0,0,0,0,0,0.0522,0.0524,0,0.0702,0.0704,0.0706,0.0764,0.0763,0.0763,0.0762,0.069,0.0688,0.0687,0,0,0,0,0,0,0,0,0,0,0,0,0,0.0348,0.035,0.0522,0.0525,0.0527,0.0702,0.0704,0.0706,0.0764,0.0763,0.0763,0.0762,0.069,0.0688,0.0687,0,0,0,0,0,0,0,0,0,0,0,0,0,0.0462,0.0351,0.0522,0.0579,0.0587,0.0702,0.0704,0.0707,0.0764,0.0763,0.0762,0.0762,0.0691,0.0689,0.0686,0.0688,0,0,0.068,0.0679,0,0,0,0,0,0,0,0,0.0455,0.0468,0.0568,0.0576,0.0584,0.0713,0.0617,0.0689,0.0764,0.0693,0.0762,0.0761,0.0677,0.0676,0.071,0.0685,0.0682,0.068,0.0678,0.0677,0.0677,0,0,0,0,0,0,0,0.0447,0.0461,0.059,0.0571,0.0581,0.0638,0.0652,0.0632,0.0679,0.0699,0.0705,0.073,0.0678,0.0712,0.0708,0.0681,0.068,0.0678,0.0676,0.0675,0.0599,0.0598,0,0,0,0,0,0,0.0427,0.0453,0.0584,0.0596,0.052,0.0642,0.0657,0.0669,0.0686,0.069,0.0731,0.0732,0.0716,0.0711,0.0705,0.0719,0.0677,0.0675,0.0674,0.06,0.0599,0.0598,0,0,0,0,0,0,0.0422,0.0436,0.0577,0.0532,0.0554,0.0645,0.0659,0.0673,0.0693,0.0713,0.0712,0.0734,0.0716,0.0708,0.0671,0.0716,0.0674,0.0672,0.0601,0.0599,0.0598,0.0739,0,0,0,0,0,0,0.0416,0.0433,0.0443,0.053,0.0556,0.063,0.0661,0.0678,0.0713,0.0716,0.0715,0.071,0.0714,0.0674,0.0669,0.0712,0.0671,0.0602,0.06,0.0599,0.0735,0.0742,0.0749,0,0,0,0,0,0.0409,0.0469,0.0442,0.0459,0.0564,0.0631,0.0648,0.0709,0.0713,0.0722,0.0714,0.0709,0.0662,0.0672,0.0666,0.071,0.0602,0.06,0.0599,0.0732,0.0741,0.0749,0,0,0,0,0,0,0.0421,0.0482,0.0456,0.053,0.055,0.0641,0.0686,0.0697,0.0707,0.0706,0.0698,0.0692,0.0683,0.0649,0.066,0.0674,0.0631,0.0628,0.0734,0.0742,0.0749,0.0795,0.0669,0,0,0,0,0,0.0414,0.0455,0.0493,0.054,0.0552,0.0596,0.0634,0.0659,0.0685,0.0692,0.0705,0.0691,0.0677,0.0668,0.0655,0.0653,0.0646,0.067,0.0677,0.0684,0.0711,0.0727,0.0741,0.0593,0.0593,0.0593,0,0,0.0428,0.047,0.049,0.0541,0.0568,0.0616,0.0617,0.0671,0.0722,0.0675,0.0747,0.0714,0.0674,0.0695,0.0687,0.0672,0.0718,0.0682,0.0689,0.0713,0.0727,0.0743,0.0756,0.0592,0.0592,0.0592,0,0,0.0503,0.0502,0.0558,0.058,0.0619,0.0639,0.0638,0.0706,0.0741,0.0768,0.076,0.0738,0.0735,0.0739,0.0726,0.0743,0.0751,0.074,0.083,0.0846,0.086,0.0872,0.0883,0.0895,0.075,0.0751,0.0751,0,0.0515,0.0581,0.0581,0.0643,0.0686,0.064,0.0704,0.0733,0.0787,0.0847,0.0792,0.0815,0.0761,0.08,0.0813,0.0768,0.0786,0.0816,0.0863,0.0875,0.0886,0.0893,0.0905,0.0757,0.0757,0.0756,0.0755,0,0.0626,0.0669,0.0709,0.075,0.0789,0.0832,0.0857,0.0904,0.0911,0.0957,0.0996,0.0917,0.094,0.0908,0.0867,0.0927,0.0918,0.0874,0.0863,0.0911,0.0913,0.0923,0.0767,0.0764,0.0762,0.0761,0,0,0.0688,0.0764,0.0776,0.0812,0.085,0.0898,0.0981,0.1065,0.1162,0.114,0.126,0.1178,0.1149,0.1126,0.1061,0.1055,0.1115,0.1016,0.1014,0.1064,0.1179,0.1125,0.113,0.1111,0.1113,0.1115,0.1154,0,0.076,0.0868,0.0912,0.101,0.1057,0.1084,0.118,0.1256,0.1301,0.1405,0.1322,0.1371,0.1226,0.1234,0.1204,0.1123,0.115,0.111,0.1092,0.1091,0.1069,0.1142,0.1079,0.1106,0.1163,0.1165,0.1166,0,0.0873,0.0918,0.1019,0.1147,0.1179,0.1237,0.1396,0.1488,0.1609,0.1658,0.1674,0.1634,0.1585,0.1461,0.1359,0.1353,0.1304,0.1232,0.1232,0.1146,0.1057,0.1061,0.1121,0.0912,0.1181,0.118,0.1179,0,0.0912,0.1027,0.1098,0.113,0.1246,0.1337,0.1414,0.1568,0.169,0.182,0.1904,0.1844,0.1818,0.1704,0.1502,0.1474,0.141,0.1342,0.1262,0.1256,0.1178,0.1161,0.1066,0.1363,0.1363,0.1363,0.1363,0,0.1,0.1075,0.111,0.1149,0.1282,0.1377,0.1566,0.1675,0.1838,0.1998,0.201,0.2089,0.1893,0.1817,0.1619,0.1444,0.1493,0.1311,0.1278,0.1219,0.1206,0.0996,0.0877,0.1364,0.1364,0.1363,0.1363,0,0.1072,0.1085,0.1187,0.1273,0.1301,0.1417,0.162,0.1764,0.1927,0.2127,0.2174,0.2279,0.2208,0.1989,0.1824,0.1614,0.1316,0.1393,0.1327,0.1285,0.0991,0.0882,0.0812,0.0723,0.1318,0.1317,0.1316,0,0.1123,0.1158,0.1236,0.1285,0.1324,0.1474,0.1581,0.1772,0.1924,0.2233,0.2316,0.2396,0.2451,0.2172,0.1818,0.1509,0.135,0.1299,0.1219,0.0997,0.0851,0.081,0.0737,0.1167,0.1165,0.1164,0.1162,0,0.1218,0.1232,0.1294,0.1349,0.144,0.1583,0.1738,0.1853,0.211,0.2282,0.2516,0.2613,0.2461,0.2183,0.1816,0.1562,0.1124,0.1261,0.1055,0.0759,0.0687,0.0577,0.111,0.1149,0.115,0.1151,0.1152,0.1152,0.1298,0.1337,0.1376,0.1459,0.1568,0.1698,0.1822,0.1965,0.2192,0.2463,0.2584,0.2741,0.2428,0.1935,0.1617,0.0986,0.1057,0.0812,0.0712,0.0704,0.0574,0.1077,0.1054,0.1055,0.1055,0.1056,0.1057,0,0.1382,0.1412,0.1472,0.1592,0.1728,0.1752,0.1944,0.2059,0.2268,0.2466,0.2658,0.2592,0.2124,0.1663,0.0869,0.0488,0.0355,0.0288,0.0191,0.0154,0.0616,0.0558,0.0397,0.0397,0.0397,0.0398,0.0398,0.0398,0.1436,0.1498,0.1498,0.171,0.1796,0.1966,0.2069,0.2199,0.2348,0.256,0.2665,0.2758,0.2384,0.106,0.0152,-0.0047,-0.0303,-0.0329,-0.0418,-0.0167,-0.0127,-0.0088,-0.0171,-0.0482,-0.0483,-0.0843,-0.0847,-0.0851]}],[{"header":{"parameterUnit":"m.s-1","parameterCategory":2,"la1":30.2991,"la2":30.254,"lo1":-89.0895,"lo2":-89.0444,"dy":0.0017,"dx":0.0017,"nx":28,"ny":28,"refTime":"2024-07-05T21:00:00:Z","depth":"2","parameterNumber":2,"parameterNumberName":"U-component_of_CURRENTS"},"data":[0,0,0,0,0,0,0,0,0,0,0,0,0,0,0,0,0,0,0,0,0,0,0,0,0,0,0,0,0,0,0,0,0,0,0,0,0,0,0,0,0,0,0,0,0,0,0,0,0,0,0,0,0,0,0,0,0,0,0.0397,0.0398,0,0.0411,0.0411,0.0411,0.039,0.039,0.0389,0.0389,0.0379,0.0379,0.0379,0,0,0,0,0,0,0,0,0,0,0,0,0,0.0383,0.0383,0.0397,0.0398,0.0398,0.0411,0.0411,0.0411,0.039,0.039,0.0389,0.0388,0.0379,0.0379,0.0379,0,0,0,0,0,0,0,0,0,0,0,0,0,0.039,0.0383,0.0397,0.0391,0.039,0.0411,0.0411,0.0411,0.039,0.039,0.0389,0.0388,0.0378,0.0379,0.0379,0.0398,0,0,0.038,0.038,0,0,0,0,0,0,0,0,0.039,0.0391,0.0391,0.0391,0.0391,0.04,0.0403,0.0406,0.0391,0.0388,0.0389,0.0388,0.0386,0.0385,0.0387,0.0397,0.0397,0.038,0.038,0.0381,0.0381,0,0,0,0,0,0,0,0.0389,0.039,0.0401,0.0392,0.0392,0.0398,0.0397,0.0403,0.0389,0.0388,0.0387,0.0393,0.0385,0.0387,0.0387,0.0397,0.038,0.0381,0.0381,0.0381,0.0581,0.0585,0,0,0,0,0,0,0.0391,0.039,0.04,0.0401,0.0391,0.0399,0.0398,0.0396,0.039,0.0389,0.0393,0.0392,0.0387,0.0386,0.0386,0.0536,0.0381,0.0381,0.0381,0.0576,0.0582,0.0587,0,0,0,0,0,0,0.0391,0.0392,0.04,0.0398,0.04,0.04,0.0398,0.0397,0.04,0.0394,0.0392,0.0398,0.0386,0.0386,0.0402,0.053,0.0381,0.0381,0.057,0.0577,0.0585,0.0753,0,0,0,0,0,0,0.039,0.0391,0.0392,0.0398,0.04,0.0423,0.0399,0.0398,0.0406,0.0404,0.0397,0.0395,0.0385,0.0401,0.0402,0.0528,0.0382,0.0563,0.0573,0.0582,0.0741,0.0765,0.0786,0,0,0,0,0,0.0389,0.0401,0.0392,0.0394,0.04,0.0425,0.0427,0.0422,0.0407,0.042,0.0414,0.0396,0.0466,0.0403,0.0403,0.0533,0.0559,0.057,0.0581,0.073,0.076,0.0785,0,0,0,0,0,0,0.0445,0.04,0.039,0.0401,0.0415,0.0422,0.0437,0.0428,0.0433,0.043,0.0413,0.0412,0.0504,0.0479,0.041,0.0626,0.053,0.0542,0.0644,0.0671,0.0693,0.0621,0.0382,0,0,0,0,0,0.0446,0.0413,0.0412,0.0429,0.0432,0.0433,0.0442,0.044,0.0446,0.0446,0.0447,0.0478,0.0555,0.0569,0.0613,0.0681,0.0656,0.0783,0.0806,0.0824,0.0771,0.0854,0.0877,0.0625,0.0625,0.0625,0,0,0.0474,0.045,0.0435,0.0433,0.0441,0.0468,0.0437,0.0459,0.0478,0.0446,0.0478,0.0547,0.0592,0.0703,0.0745,0.0688,0.0899,0.0839,0.0855,0.0789,0.0868,0.0892,0.0913,0.0633,0.0631,0.063,0,0,0.052,0.0496,0.0482,0.0482,0.0486,0.05,0.0508,0.0519,0.0516,0.0548,0.0591,0.0684,0.0746,0.0826,0.0872,0.1028,0.1024,0.1114,0.1155,0.124,0.1259,0.1276,0.1326,0.1345,0.1116,0.1116,0.1116,0,0.0566,0.0539,0.0498,0.05,0.0499,0.0518,0.0533,0.0554,0.0573,0.0589,0.057,0.079,0.0795,0.1001,0.1054,0.1077,0.1118,0.1048,0.1265,0.128,0.1294,0.134,0.136,0.1125,0.1124,0.1123,0.1122,0,0.0581,0.0578,0.0586,0.0574,0.0579,0.0602,0.0612,0.0651,0.066,0.0682,0.0848,0.092,0.107,0.1131,0.1109,0.1303,0.1302,0.1293,0.1182,0.1329,0.137,0.1387,0.1139,0.1136,0.1133,0.113,0,0,0.0638,0.0598,0.0599,0.0609,0.0602,0.0631,0.0668,0.0719,0.079,0.086,0.0998,0.1125,0.123,0.1289,0.1395,0.1413,0.1541,0.1386,0.1387,0.1408,0.1736,0.1674,0.1685,0.1603,0.1606,0.1608,0.1741,0,0.0671,0.0694,0.063,0.0685,0.0719,0.0704,0.074,0.0788,0.0851,0.1004,0.1132,0.1284,0.1293,0.1419,0.1491,0.1543,0.1587,0.1503,0.1608,0.1608,0.1514,0.1702,0.1519,0.1618,0.1757,0.176,0.1762,0,0.0668,0.071,0.0736,0.0754,0.0757,0.0807,0.0895,0.0914,0.1084,0.1128,0.1359,0.147,0.1655,0.1597,0.1776,0.1749,0.1741,0.1716,0.1723,0.159,0.1576,0.1487,0.1641,0.1788,0.1786,0.1784,0.1782,0,0.0734,0.0754,0.0782,0.0785,0.083,0.0866,0.0909,0.1,0.101,0.1259,0.1325,0.1631,0.1764,0.186,0.1842,0.1841,0.1945,0.1961,0.1899,0.1895,0.1706,0.1679,0.2014,0.2014,0.2014,0.2013,0.2013,0,0.0737,0.0814,0.085,0.0897,0.0972,0.0958,0.1061,0.1112,0.1233,0.1287,0.1454,0.1567,0.1806,0.1907,0.1927,0.1982,0.2056,0.1912,0.1936,0.1767,0.1746,0.1838,0.1816,0.2018,0.2017,0.2016,0.2015,0,0.0784,0.081,0.0886,0.0962,0.1004,0.1061,0.1115,0.1183,0.124,0.1356,0.1408,0.1552,0.1674,0.1846,0.1963,0.2031,0.2076,0.2035,0.1804,0.1797,0.1963,0.1949,0.209,0.2089,0.2088,0.2088,0.2087,0,0.079,0.0827,0.0919,0.0947,0.1,0.1102,0.1152,0.1227,0.1256,0.129,0.1331,0.1457,0.1552,0.1752,0.1851,0.1985,0.201,0.1876,0.182,0.1968,0.1977,0.1964,0.1951,0.1665,0.1661,0.1658,0.1655,0,0.0761,0.0787,0.0785,0.0911,0.0994,0.1062,0.1149,0.1178,0.1212,0.1258,0.1241,0.1284,0.1456,0.1557,0.1718,0.1726,0.1883,0.1816,0.2069,0.1659,0.1574,0.1581,0.1581,0.1627,0.1629,0.1632,0.1633,0.1634,0.0637,0.0667,0.0653,0.0758,0.0845,0.0935,0.0987,0.1043,0.106,0.1092,0.1166,0.1221,0.1331,0.1508,0.1518,0.1562,0.1672,0.1675,0.1683,0.1694,0.1607,0.1524,0.1549,0.1552,0.1554,0.1555,0.1557,0,0.0416,0.051,0.0529,0.0618,0.066,0.0807,0.0877,0.0899,0.0911,0.106,0.1115,0.1088,0.1171,0.1281,0.1304,0.1354,0.1288,0.1332,0.1266,0.1294,0.1318,0.121,0.1049,0.1048,0.1047,0.1046,0,0,0.0324,0.0303,0.0374,0.0383,0.0486,0.057,0.0619,0.0671,0.0763,0.0835,0.0941,0.1156,0.123,0.1163,0.1158,0.1136,0.1193,0.1064,0.1459,0.1405,0.1429,0.1492,0.1353,0,0,0,0,0]},{"header":{"parameterUnit":"m.s-1","parameterCategory":2,"la1":30.2991,"la2":30.254,"lo1":-89.0895,"lo2":-89.0444,"dy":0.0017,"dx":0.0017,"nx":28,"ny":28,"refTime":"2024-07-05T21:00:00:Z","depth":"2","parameterNumber":3,"parameterNumberName":"V-component_of_CURRENTS"},"data":[0,0,0,0,0,0,0,0,0,0,0,0,0,0,0,0,0,0,0,0,0,0,0,0,0,0,0,0,0,0,0,0,0,0,0,0,0,0,0,0,0,0,0,0,0,0,0,0,0,0,0,0,0,0,0,0,0,0,-0.097,-0.097,0,-0.0915,-0.0915,-0.0914,-0.0899,-0.09,-0.09,-0.0901,-0.0783,-0.0779,-0.0776,0,0,0,0,0,0,0,0,0,0,0,0,0,-0.0991,-0.0991,-0.097,-0.0969,-0.0969,-0.0916,-0.0915,-0.0914,-0.0899,-0.09,-0.09,-0.0901,-0.0784,-0.078,-0.0776,0,0,0,0,0,0,0,0,0,0,0,0,0,-0.0963,-0.0991,-0.097,-0.0956,-0.0955,-0.0916,-0.0915,-0.0914,-0.0899,-0.09,-0.09,-0.0901,-0.0785,-0.078,-0.0775,-0.0728,0,0,-0.0759,-0.0756,0,0,0,0,0,0,0,0,-0.0964,-0.0962,-0.0959,-0.0957,-0.0955,-0.0916,-0.0879,-0.0849,-0.0899,-0.0918,-0.0901,-0.0901,-0.0822,-0.0814,-0.0801,-0.0722,-0.0717,-0.0758,-0.0755,-0.0753,-0.0751,0,0,0,0,0,0,0,-0.0966,-0.0963,-0.0947,-0.0958,-0.0956,-0.0929,-0.0926,-0.0873,-0.0865,-0.0917,-0.0916,-0.0912,-0.0821,-0.0806,-0.0798,-0.0715,-0.0758,-0.0754,-0.075,-0.0748,-0.0535,-0.0533,0,0,0,0,0,0,-0.0979,-0.0966,-0.0949,-0.0945,-0.0964,-0.0929,-0.0925,-0.0927,-0.0866,-0.0859,-0.0912,-0.0912,-0.0815,-0.0804,-0.0793,-0.0647,-0.0753,-0.0748,-0.0745,-0.0538,-0.0535,-0.0532,0,0,0,0,0,0,-0.098,-0.0979,-0.0951,-0.0955,-0.095,-0.0928,-0.0929,-0.0925,-0.0908,-0.0864,-0.0855,-0.0899,-0.0815,-0.0801,-0.074,-0.0645,-0.0745,-0.074,-0.0541,-0.0537,-0.0534,-0.0409,0,0,0,0,0,0,-0.0981,-0.0979,-0.0976,-0.0956,-0.095,-0.0918,-0.0929,-0.0924,-0.0905,-0.0905,-0.0849,-0.0839,-0.0814,-0.0748,-0.0735,-0.064,-0.0736,-0.0544,-0.0539,-0.0535,-0.0416,-0.0401,-0.0389,0,0,0,0,0,-0.0982,-0.0976,-0.0976,-0.0973,-0.095,-0.0917,-0.091,-0.0896,-0.0904,-0.0885,-0.0854,-0.0841,-0.0709,-0.0743,-0.0727,-0.0628,-0.0546,-0.054,-0.0535,-0.0422,-0.0404,-0.0389,0,0,0,0,0,0,-0.0935,-0.0973,-0.0973,-0.0965,-0.0939,-0.0915,-0.0898,-0.0892,-0.0853,-0.0855,-0.0819,-0.0805,-0.0705,-0.0702,-0.074,-0.0558,-0.062,-0.0612,-0.054,-0.0523,-0.0509,-0.0604,-0.0732,0,0,0,0,0,-0.0936,-0.0977,-0.0958,-0.095,-0.0938,-0.0917,-0.0902,-0.0894,-0.0863,-0.0848,-0.0807,-0.0755,-0.0669,-0.0631,-0.0573,-0.0485,-0.056,-0.0412,-0.0398,-0.0386,-0.0454,-0.0484,-0.0481,-0.0514,-0.0514,-0.0515,0,0,-0.0918,-0.0941,-0.096,-0.0949,-0.0931,-0.0898,-0.0909,-0.0886,-0.0877,-0.0838,-0.0798,-0.0706,-0.0638,-0.0527,-0.0481,-0.0513,-0.0407,-0.0379,-0.0369,-0.0446,-0.0478,-0.0476,-0.0473,-0.0511,-0.0511,-0.0512,0,0,-0.09,-0.0915,-0.0937,-0.0925,-0.0911,-0.0886,-0.0878,-0.0845,-0.0854,-0.0805,-0.0743,-0.0637,-0.0538,-0.0456,-0.0405,-0.0297,-0.0333,-0.0225,-0.0226,-0.0249,-0.0248,-0.0249,-0.0309,-0.0316,-0.0218,-0.0218,-0.0218,0,-0.086,-0.0892,-0.0922,-0.0919,-0.0911,-0.0878,-0.0858,-0.0849,-0.0802,-0.0802,-0.0793,-0.0557,-0.0524,-0.0332,-0.0311,-0.0267,-0.0303,-0.028,-0.0235,-0.0237,-0.024,-0.0303,-0.0312,-0.0211,-0.0212,-0.0213,-0.0213,0,-0.0864,-0.087,-0.0869,-0.0874,-0.0859,-0.0835,-0.0828,-0.0795,-0.0785,-0.0778,-0.0627,-0.051,-0.0347,-0.0296,-0.0295,-0.0202,-0.0227,-0.0211,-0.0284,-0.023,-0.0298,-0.031,-0.0202,-0.0204,-0.0206,-0.0208,0,0,-0.0825,-0.0864,-0.0864,-0.086,-0.0844,-0.0821,-0.0806,-0.0777,-0.0739,-0.0662,-0.0562,-0.0425,-0.0301,-0.0238,-0.0099,-0.0167,-0.0222,-0.0214,-0.0218,-0.0292,-0.0298,-0.0267,-0.0279,-0.0177,-0.0179,-0.0181,-0.0328,0,-0.0803,-0.078,-0.0838,-0.0802,-0.0768,-0.0776,-0.0758,-0.0742,-0.0701,-0.0592,-0.047,-0.0348,-0.0278,-0.0149,-0.0145,-0.0174,-0.0253,-0.0188,-0.0331,-0.0338,-0.033,-0.0291,-0.0272,-0.0397,-0.0341,-0.0343,-0.0344,0,-0.0805,-0.0781,-0.0738,-0.0757,-0.0751,-0.0713,-0.0651,-0.0651,-0.055,-0.0514,-0.0301,-0.0224,-0.0108,-0.0132,-0.0134,-0.0075,-0.0216,-0.0319,-0.0323,-0.0373,-0.0331,-0.0448,-0.0423,-0.0366,-0.0364,-0.0363,-0.0361,0,-0.0738,-0.0745,-0.0702,-0.07,-0.0676,-0.0661,-0.0645,-0.0593,-0.0599,-0.0441,-0.0382,-0.0165,-0.0073,-0.0123,-0.0229,-0.0212,-0.0358,-0.0332,-0.045,-0.045,-0.0514,-0.0514,-0.0511,-0.0511,-0.051,-0.051,-0.0509,0,-0.0722,-0.0685,-0.0647,-0.0603,-0.0549,-0.059,-0.0514,-0.0485,-0.0405,-0.0361,-0.0274,-0.0146,-0.0118,-0.014,-0.0222,-0.0309,-0.0307,-0.0492,-0.0488,-0.0461,-0.0456,-0.0501,-0.0498,-0.0515,-0.0514,-0.0513,-0.0512,0,-0.0689,-0.0649,-0.0602,-0.0548,-0.0501,-0.048,-0.045,-0.0401,-0.0374,-0.0266,-0.0252,-0.0202,-0.022,-0.0214,-0.0366,-0.0352,-0.046,-0.0555,-0.0532,-0.0522,-0.0553,-0.0541,-0.0667,-0.0668,-0.0668,-0.0668,-0.0668,0,-0.0658,-0.0617,-0.0534,-0.0487,-0.0454,-0.0389,-0.0319,-0.0312,-0.0291,-0.0287,-0.0237,-0.0297,-0.0237,-0.0333,-0.0392,-0.0482,-0.053,-0.0611,-0.0596,-0.0588,-0.0571,-0.0559,-0.0547,-0.0634,-0.0634,-0.0633,-0.0633,0,-0.0636,-0.0618,-0.0603,-0.0459,-0.0372,-0.03,-0.0231,-0.0197,-0.0207,-0.017,-0.0174,-0.0194,-0.027,-0.0317,-0.0469,-0.0533,-0.0537,-0.0613,-0.0616,-0.0568,-0.0559,-0.054,-0.053,-0.0632,-0.0632,-0.0632,-0.0632,-0.0632,-0.0648,-0.0636,-0.0592,-0.0485,-0.0389,-0.0256,-0.0173,-0.013,-0.009,-0.0038,-0.0085,-0.0047,-0.022,-0.0323,-0.0453,-0.0559,-0.059,-0.0647,-0.0647,-0.0647,-0.0588,-0.0576,-0.0645,-0.0646,-0.0646,-0.0646,-0.0646,0,-0.0665,-0.0633,-0.0581,-0.0468,-0.0391,-0.0286,-0.0151,-0.0083,0.0005,0.0096,0.0125,0.0014,-0.011,-0.0248,-0.0423,-0.059,-0.0595,-0.0614,-0.0599,-0.0601,-0.0603,-0.0539,-0.0585,-0.0585,-0.0585,-0.0584,0,0,-0.0661,-0.0631,-0.0589,-0.0478,-0.0378,-0.0211,-0.01,0.0006,0.0091,0.0198,0.0268,0.0276,0.0001,-0.0102,-0.0337,-0.044,-0.0464,-0.0449,-0.049,-0.0449,-0.0447,-0.0626,-0.0531,0,0,0,0,0]}],[{"header":{"parameterUnit":"m.s-1","parameterCategory":2,"la1":30.2991,"la2":30.254,"lo1":-89.0895,"lo2":-89.0444,"dy":0.0017,"dx":0.0017,"nx":28,"ny":28,"refTime":"2024-07-05T21:00:00:Z","depth":"4","parameterNumber":2,"parameterNumberName":"U-component_of_CURRENTS"},"data":[0,0,0,0,0,0,0,0,0,0,0,0,0,0,0,0,0,0,0,0,0,0,0,0,0,0,0,0,0,0,0,0,0,0,0,0,0,0,0,0,0,0,0,0,0,0,0,0,0,0,0,0,0,0,0,0,0,0,0.0219,0.0219,0,0.0272,0.0272,0.0272,0.0313,0.0313,0.0314,0.0315,0.037,0.037,0.0371,0,0,0,0,0,0,0,0,0,0,0,0,0,0.0131,0.0132,0.0218,0.022,0.0221,0.0272,0.0272,0.0272,0.0312,0.0313,0.0314,0.0315,0.0369,0.037,0.0371,0,0,0,0,0,0,0,0,0,0,0,0,0,0.0172,0.0133,0.0218,0.0249,0.0253,0.0271,0.0272,0.0272,0.0312,0.0313,0.0314,0.0315,0.0369,0.037,0.0371,0.0358,0,0,0.0375,0.0376,0,0,0,0,0,0,0,0,0.0169,0.0174,0.0244,0.0247,0.0251,0.029,0.0262,0.0302,0.0312,0.0286,0.0315,0.0316,0.0345,0.0348,0.035,0.036,0.0363,0.0375,0.0376,0.0377,0.0377,0,0,0,0,0,0,0,0.0166,0.0172,0.0236,0.0245,0.025,0.0254,0.0261,0.0269,0.0306,0.0288,0.0292,0.0304,0.0347,0.0349,0.0352,0.0363,0.0375,0.0376,0.0377,0.0378,0.0418,0.0418,0,0,0,0,0,0,0.0167,0.017,0.0234,0.0238,0.0216,0.0255,0.0262,0.0273,0.0306,0.0313,0.0303,0.0305,0.0346,0.0351,0.0354,0.0389,0.0377,0.0378,0.0378,0.0418,0.0418,0.0419,0,0,0,0,0,0,0.0165,0.0173,0.0232,0.0208,0.0216,0.0256,0.0268,0.0274,0.0296,0.0318,0.0324,0.0321,0.0347,0.0352,0.0372,0.039,0.0378,0.0379,0.0417,0.0418,0.0418,0.0427,0,0,0,0,0,0,0.0162,0.0171,0.018,0.0208,0.0218,0.0253,0.0267,0.0274,0.0302,0.0306,0.0335,0.034,0.0349,0.037,0.0373,0.0391,0.038,0.0417,0.0418,0.0418,0.0427,0.0428,0.043,0,0,0,0,0,0.0159,0.0169,0.018,0.0188,0.0228,0.0254,0.0259,0.0288,0.0302,0.0311,0.0328,0.034,0.0377,0.0371,0.0374,0.0394,0.0417,0.0417,0.0418,0.0426,0.0428,0.043,0,0,0,0,0,0,0.0132,0.0175,0.0187,0.0209,0.0234,0.0263,0.0278,0.0294,0.0314,0.0322,0.0339,0.0345,0.0368,0.0376,0.037,0.0407,0.0401,0.0402,0.0406,0.0407,0.0409,0.0419,0.0381,0,0,0,0,0,0.013,0.0153,0.0187,0.0205,0.0219,0.0249,0.0264,0.0283,0.0305,0.0317,0.0339,0.0359,0.0369,0.0386,0.0395,0.0414,0.0422,0.0431,0.0432,0.0433,0.0443,0.0466,0.047,0.0421,0.0421,0.0421,0,0,0.0122,0.0152,0.0163,0.0201,0.0224,0.0245,0.0261,0.0289,0.0309,0.0318,0.0354,0.0361,0.0373,0.0394,0.0406,0.0408,0.0448,0.0434,0.0435,0.0445,0.0467,0.0472,0.0476,0.0422,0.0422,0.0421,0,0,0.0128,0.0148,0.0172,0.0194,0.0235,0.0249,0.026,0.0297,0.0319,0.0344,0.0355,0.0373,0.0399,0.0412,0.0419,0.0434,0.0449,0.0443,0.0468,0.0489,0.0493,0.0497,0.05,0.0505,0.0452,0.0452,0.0452,0,0.0118,0.0156,0.0181,0.021,0.0233,0.0253,0.028,0.0295,0.0334,0.0356,0.0359,0.04,0.0407,0.0434,0.044,0.0439,0.045,0.0459,0.0491,0.0495,0.0499,0.0502,0.0506,0.0452,0.0452,0.0452,0.0452,0,0.0138,0.0173,0.0189,0.0233,0.0254,0.0279,0.0307,0.033,0.0354,0.0375,0.0413,0.042,0.0448,0.0452,0.0452,0.0488,0.0485,0.0483,0.0487,0.0505,0.0506,0.0511,0.0453,0.0453,0.0453,0.0452,0,0,0.011,0.0189,0.0194,0.023,0.0271,0.0293,0.0322,0.0361,0.0391,0.0416,0.0458,0.0472,0.0482,0.0491,0.0496,0.0519,0.0545,0.0521,0.0522,0.0525,0.0588,0.0574,0.0577,0.0556,0.0558,0.0559,0.0572,0,0.0123,0.0173,0.0217,0.0268,0.0297,0.0333,0.0367,0.04,0.0423,0.0461,0.0475,0.0505,0.0494,0.0511,0.0531,0.0529,0.0561,0.0541,0.057,0.0571,0.0557,0.0584,0.0562,0.0575,0.0577,0.0577,0.0578,0,0.013,0.0168,0.0209,0.0306,0.0326,0.035,0.0406,0.045,0.0491,0.052,0.0543,0.0545,0.056,0.0561,0.0578,0.0568,0.0591,0.0598,0.0598,0.059,0.0567,0.0558,0.0586,0.0586,0.0585,0.0584,0.0584,0,0.0084,0.0176,0.0208,0.023,0.0318,0.0351,0.0405,0.0455,0.0506,0.055,0.058,0.0587,0.061,0.0612,0.0607,0.06,0.0637,0.0621,0.0637,0.0635,0.0638,0.0633,0.0677,0.0677,0.0677,0.0677,0.0677,0,0.0081,0.0117,0.0188,0.0198,0.0255,0.0339,0.0394,0.0454,0.0535,0.0597,0.0609,0.0644,0.0634,0.0641,0.0624,0.0633,0.0647,0.0651,0.0647,0.0638,0.0634,0.064,0.0636,0.0677,0.0677,0.0677,0.0677,0,0.0036,0.0078,0.012,0.02,0.0227,0.0269,0.0389,0.0433,0.053,0.0607,0.0627,0.0691,0.0708,0.0689,0.0701,0.0672,0.0664,0.0684,0.0669,0.0662,0.0641,0.0636,0.0678,0.0678,0.0678,0.0678,0.0678,0,0.0017,0.0022,0.0083,0.0106,0.0144,0.0215,0.0261,0.0393,0.0452,0.0629,0.0663,0.0732,0.0754,0.0737,0.0732,0.0697,0.0711,0.0689,0.0674,0.0654,0.0645,0.0641,0.0637,0.0678,0.0678,0.0678,0.0678,0,-0.0028,-0.0022,0.0012,0.0046,0.0086,0.0151,0.0244,0.0288,0.0464,0.0545,0.0676,0.0711,0.0761,0.0739,0.074,0.0714,0.0668,0.0687,0.0687,0.0673,0.0653,0.0644,0.064,0.0677,0.0677,0.0677,0.0677,0,-0.0073,-0.0071,-0.0043,0.0011,0.0053,0.011,0.0157,0.0267,0.0359,0.0573,0.0605,0.07,0.0766,0.0755,0.0736,0.0717,0.071,0.0666,0.0667,0.0668,0.0658,0.0631,0.0656,0,0,0,0,0,-0.0108,-0.0095,-0.0068,-0.0004,0.0045,0.0083,0.0168,0.0228,0.0374,0.0453,0.055,0.06,0.0657,0.0686,0.0663,0.0712,0.0683,0.0681,0.0625,0.0674,0.0675,0.0664,0,0,0,0,0,0,-0.013,-0.0118,-0.0084,-0.0015,0.0033,0.0092,0.0141,0.0236,0.0291,0.0434,0.045,0.0562,0.059,0.0666,0.0655,0.0662,0.0613,0.0735,0.0733,0.0674,0.0675,0.0675,0.0664,0,0,0,0,0]},{"header":{"parameterUnit":"m.s-1","parameterCategory":2,"la1":30.2991,"la2":30.254,"lo1":-89.0895,"lo2":-89.0444,"dy":0.0017,"dx":0.0017,"nx":28,"ny":28,"refTime":"2024-07-05T21:00:00:Z","depth":"4","parameterNumber":3,"parameterNumberName":"V-component_of_CURRENTS"},"data":[0,0,0,0,0,0,0,0,0,0,0,0,0,0,0,0,0,0,0,0,0,0,0,0,0,0,0,0,0,0,0,0,0,0,0,0,0,0,0,0,0,0,0,0,0,0,0,0,0,0,0,0,0,0,0,0,0,0,-0.0174,-0.0174,0,-0.0211,-0.0211,-0.0212,-0.0255,-0.0256,-0.0257,-0.0257,-0.0353,-0.0355,-0.0357,0,0,0,0,0,0,0,0,0,0,0,0,0,-0.0133,-0.0133,-0.0174,-0.0174,-0.0175,-0.0211,-0.0211,-0.0212,-0.0255,-0.0256,-0.0257,-0.0257,-0.0353,-0.0355,-0.0358,0,0,0,0,0,0,0,0,0,0,0,0,0,-0.0159,-0.0133,-0.0174,-0.02,-0.0203,-0.0211,-0.0211,-0.0212,-0.0255,-0.0256,-0.0257,-0.0258,-0.0352,-0.0355,-0.0358,-0.0359,0,0,-0.0367,-0.0368,0,0,0,0,0,0,0,0,-0.0157,-0.0161,-0.0196,-0.0198,-0.0201,-0.0229,-0.0232,-0.0264,-0.0255,-0.0236,-0.0257,-0.0258,-0.0316,-0.0322,-0.0327,-0.0364,-0.0368,-0.0367,-0.0369,-0.0371,-0.0371,0,0,0,0,0,0,0,-0.0156,-0.0159,-0.0189,-0.0196,-0.0199,-0.0207,-0.0212,-0.0238,-0.0273,-0.0238,-0.0241,-0.0243,-0.0318,-0.0324,-0.033,-0.0369,-0.0367,-0.037,-0.0372,-0.0373,-0.0505,-0.0507,0,0,0,0,0,0,-0.0149,-0.0157,-0.0188,-0.019,-0.018,-0.0207,-0.0212,-0.022,-0.0271,-0.0279,-0.0242,-0.0245,-0.0319,-0.0327,-0.0334,-0.0414,-0.0371,-0.0373,-0.0375,-0.0504,-0.0506,-0.0508,0,0,0,0,0,0,-0.0148,-0.0151,-0.0187,-0.0174,-0.0179,-0.0207,-0.0214,-0.022,-0.0249,-0.0274,-0.0283,-0.0268,-0.032,-0.033,-0.0386,-0.0415,-0.0375,-0.0378,-0.0502,-0.0504,-0.0507,-0.0526,0,0,0,0,0,0,-0.0146,-0.0151,-0.0162,-0.0173,-0.0179,-0.0212,-0.0214,-0.022,-0.0247,-0.0252,-0.0299,-0.0307,-0.0321,-0.0382,-0.0389,-0.0419,-0.038,-0.0499,-0.0503,-0.0506,-0.0523,-0.0529,-0.0534,0,0,0,0,0,-0.0145,-0.0162,-0.0162,-0.0166,-0.0191,-0.0213,-0.0217,-0.024,-0.0248,-0.0268,-0.0303,-0.0307,-0.0407,-0.0385,-0.0394,-0.0425,-0.0498,-0.0502,-0.0506,-0.0521,-0.0528,-0.0534,0,0,0,0,0,0,-0.016,-0.0168,-0.0169,-0.019,-0.0206,-0.022,-0.0242,-0.025,-0.0291,-0.0305,-0.0326,-0.0337,-0.0398,-0.0411,-0.0386,-0.0474,-0.0454,-0.046,-0.0463,-0.047,-0.0475,-0.0479,-0.0382,0,0,0,0,0,-0.0163,-0.0175,-0.0184,-0.0204,-0.0214,-0.0229,-0.0242,-0.0257,-0.0287,-0.0306,-0.0337,-0.0377,-0.0415,-0.0443,-0.0476,-0.0522,-0.052,-0.055,-0.0556,-0.056,-0.0571,-0.059,-0.0598,-0.052,-0.052,-0.052,0,0,-0.017,-0.018,-0.0185,-0.0207,-0.0222,-0.0243,-0.0241,-0.0273,-0.0298,-0.0311,-0.0369,-0.0397,-0.0432,-0.0486,-0.0515,-0.0505,-0.0579,-0.0565,-0.0568,-0.0577,-0.0595,-0.0602,-0.0609,-0.0523,-0.0522,-0.0522,0,0,-0.0186,-0.0205,-0.0214,-0.0232,-0.0258,-0.027,-0.0283,-0.0309,-0.0335,-0.0383,-0.0402,-0.0445,-0.0506,-0.0532,-0.0553,-0.0608,-0.0605,-0.0629,-0.0661,-0.0679,-0.0685,-0.0691,-0.0682,-0.0686,-0.0633,-0.0633,-0.0633,0,-0.0194,-0.0205,-0.0223,-0.0243,-0.0259,-0.0285,-0.0302,-0.0334,-0.0379,-0.0405,-0.0412,-0.0504,-0.0525,-0.0588,-0.0611,-0.0618,-0.0625,-0.0629,-0.0684,-0.069,-0.0695,-0.0684,-0.0689,-0.0634,-0.0634,-0.0634,-0.0634,0,-0.0214,-0.0225,-0.024,-0.0268,-0.0295,-0.0319,-0.0356,-0.0402,-0.0433,-0.0455,-0.0529,-0.0561,-0.0618,-0.063,-0.0639,-0.0697,-0.0687,-0.0683,-0.0661,-0.0703,-0.069,-0.0694,-0.0636,-0.0636,-0.0635,-0.0635,0,0,-0.0229,-0.0241,-0.0252,-0.0247,-0.0307,-0.0321,-0.0395,-0.0444,-0.0479,-0.0541,-0.0585,-0.0655,-0.0677,-0.0703,-0.0722,-0.0739,-0.0765,-0.0736,-0.0736,-0.0714,-0.0798,-0.0713,-0.0709,-0.0777,-0.0779,-0.078,-0.0767,0,-0.0235,-0.0249,-0.0268,-0.0288,-0.0296,-0.035,-0.0395,-0.0456,-0.0516,-0.057,-0.0629,-0.0672,-0.0705,-0.0725,-0.0762,-0.0766,-0.0782,-0.0769,-0.0772,-0.0772,-0.0681,-0.0714,-0.0784,-0.077,-0.0771,-0.0772,-0.0772,0,-0.0257,-0.0257,-0.0273,-0.0268,-0.0277,-0.0314,-0.0396,-0.0431,-0.0533,-0.057,-0.0663,-0.0705,-0.0775,-0.077,-0.0834,-0.0831,-0.0828,-0.0819,-0.0818,-0.0739,-0.0696,-0.0726,-0.078,-0.0779,-0.0779,-0.0778,-0.0778,0,-0.026,-0.0258,-0.0261,-0.0271,-0.029,-0.033,-0.0358,-0.0455,-0.047,-0.0585,-0.0595,-0.0718,-0.0733,-0.08,-0.0816,-0.0836,-0.0842,-0.0858,-0.0778,-0.077,-0.0839,-0.0834,-0.0887,-0.0887,-0.0887,-0.0887,-0.0887,0,-0.0267,-0.027,-0.0263,-0.0273,-0.0275,-0.0309,-0.0348,-0.0401,-0.0459,-0.0459,-0.0588,-0.0586,-0.0738,-0.0768,-0.0816,-0.0803,-0.0849,-0.0788,-0.0769,-0.0846,-0.0842,-0.0841,-0.0835,-0.0886,-0.0886,-0.0886,-0.0887,0,-0.0287,-0.0283,-0.0271,-0.0276,-0.0282,-0.0297,-0.0315,-0.0332,-0.0382,-0.0394,-0.0417,-0.0488,-0.0527,-0.0642,-0.0705,-0.0746,-0.0768,-0.0738,-0.079,-0.0772,-0.069,-0.0687,-0.0687,-0.0684,-0.0682,-0.068,-0.0678,0,-0.0299,-0.0293,-0.0272,-0.026,-0.0273,-0.0289,-0.0295,-0.0323,-0.0328,-0.0303,-0.0287,-0.032,-0.0383,-0.0414,-0.0535,-0.0644,-0.0641,-0.0668,-0.0725,-0.0693,-0.0674,-0.0674,-0.0674,-0.0674,-0.0673,-0.0673,-0.0672,0,-0.0303,-0.0298,-0.0276,-0.0253,-0.0255,-0.0229,-0.0238,-0.0223,-0.0225,-0.024,-0.0174,-0.0216,-0.0231,-0.0344,-0.042,-0.0491,-0.0684,-0.0643,-0.065,-0.0704,-0.0677,-0.0661,-0.0663,-0.0663,-0.0665,-0.0665,-0.0666,0,-0.0297,-0.0283,-0.025,-0.0232,-0.0212,-0.0187,-0.0189,-0.016,-0.0147,-0.0131,-0.0084,-0.0121,-0.0166,-0.0251,-0.0308,-0.0399,-0.0434,-0.0485,-0.0502,-0.0512,-0.0474,-0.0415,-0.0306,0,0,0,0,0,-0.0286,-0.0267,-0.0228,-0.0204,-0.0179,-0.0183,-0.0146,-0.0144,-0.0137,-0.0082,-0.009,-0.0101,-0.0164,-0.0177,-0.0253,-0.0284,-0.0469,-0.0375,-0.0542,-0.0616,-0.0626,-0.0605,0,0,0,0,0,0,-0.0271,-0.0245,-0.0223,-0.0185,-0.0177,-0.0155,-0.0139,-0.0124,-0.0099,-0.0088,-0.0119,-0.0125,-0.0198,-0.0142,-0.0262,-0.0282,-0.0395,-0.0412,-0.0413,-0.061,-0.0619,-0.0627,-0.0609,0,0,0,0,0]}]]